Location: Unspecified
(52.4292°N, 19.3359°E)
Time: 09:15:02
(UTC+02:00)

Tiros 1 - Pass Details

Date: 26 May 2024
Orbit: 624 x 657 km, 48.4° (Epoch: 22 June)

Event Time Altitude Azimuth Distance (km) Brightness Sun altitude
Rises 17:09:14 0° 275° (W) 2,983 11.7 30.4°
Reaches altitude 10° 17:12:31 10° 253° (WSW) 2,066 11.2 29.9°
Maximum altitude 17:15:07 15° 219° (SW) 1,765 10.2 29.5°
Drops below altitude 10° 17:17:43 10° 186° (S) 2,055 9.9 29.1°
Sets 17:20:59 0° 162° (SSE) 2,957 10.4 28.6°
